FW2284 Weather Reports


Display with metric or nautical units.
time (UTC)temp
F
wind
direction
speed
MPH
gust
MPH
rain 1hr
in
rain 24hr
in
rain mn
in
humidity
%
barometer
mb
20260903194547 96 226 2.0 8.0 0.00 0.00 0.00 45 1012.6
20260903193041 96 130 6.0 10.0 0.00 0.00 0.00 45 1012.8
20260903191533 96 174 4.0 10.0 0.00 0.00 0.00 47 1013.0
20260903190032 96 269 3.0 9.0 0.00 0.00 0.00 48 1013.1
20260903184530 96 131 6.0 11.0 0.00 0.00 0.00 50 1013.2
20260903183027 96 262 2.0 9.0 0.00 0.00 0.00 50 1013.4
20260903181525 96 221 3.0 8.0 0.00 0.00 0.00 51 1013.5
20260903180022 94 272 4.0 9.0 0.00 0.00 0.00 51 1013.6
20260903174522 94 219 5.0 9.0 0.00 0.00 0.00 51 1013.8
20260903173025 94 225 4.0 8.0 0.00 0.00 0.00 52 1014.2
20260903171519 94 252 3.0 9.0 0.00 0.00 0.00 53 1014.2
20260903170016 93 226 4.0 8.0 0.00 0.00 0.00 56 1014.2
20260903164515 92 203 3.0 10.0 0.00 0.00 0.00 55 1014.6
20260903163019 92 270 4.0 10.0 0.00 0.00 0.00 56 1014.5
20260903161511 92 243 5.0 10.0 0.00 0.00 0.00 56 1014.5
20260903160016 91 269 4.0 8.0 0.00 0.00 0.00 57 1014.6
20260903154507 90 307 4.0 11.0 0.00 0.00 0.00 57 1014.5
20260903153007 90 274 3.0 10.0 0.00 0.00 0.00 59 1014.4
20260903151505 90 290 3.0 9.0 0.00 0.00 0.00 58 1014.6
20260903150008 89 242 2.0 7.0 0.00 0.00 0.00 62 1014.5
20260903144600 89 263 2.0 7.0 0.00 0.00 0.00 61 1014.5
20260903143105 87 217 2.0 8.0 0.00 0.00 0.00 64 1014.5
20260903141554 86 257 1.0 6.0 0.00 0.00 0.00 68 1014.5
20260903140050 85 212 3.0 7.0 0.00 0.00 0.00 68 1014.6
20260903134552 84 164 3.0 6.0 0.00 0.00 0.00 68 1014.6
20260903133044 83 193 2.0 6.0 0.00 0.00 0.00 70 1014.6
20260903131541 82 220 2.0 5.0 0.00 0.00 0.00 70 1014.6
20260903130040 81 194 1.0 3.0 0.00 0.00 0.00 74 1014.5
20260903124539 79 198 1.0 5.0 0.00 0.00 0.00 74 1014.6
20260903123034 79 196 0.0 3.0 0.00 0.00 0.00 75 1014.5
20260903121501 78 165 1.0 3.0 0.00 0.00 0.00 77 1014.5
20260903120106 77 220 1.0 4.0 0.00 0.00 0.00 78 1014.3
20260903114600 77 201 1.0 2.0 0.00 0.00 0.00 78 1014.2
20260903113057 76 139 1.0 4.0 0.00 0.00 0.00 78 1014.1
20260903111558 77 174 1.0 2.0 0.00 0.00 0.00 78 1014.1
20260903110057 77 188 2.0 3.0 0.00 0.00 0.00 78 1013.9
20260903104601 77 202 0.0 4.0 0.00 0.00 0.00 77 1013.8
20260903103051 77 168 1.0 4.0 0.00 0.00 0.00 78 1013.8
20260903101549 78 193 0.0 3.0 0.00 0.00 0.00 76 1013.9
20260903100048 78 155 1.0 3.0 0.00 0.00 0.00 76 1014.0
20260903094557 78 153 1.0 3.0 0.00 0.00 0.00 76 1013.9
20260903093054 78 212 1.0 4.0 0.00 0.00 0.00 75 1013.9
20260903091544 79 191 1.0 3.0 0.00 0.00 0.00 75 1013.9
20260903090042 79 150 2.0 5.0 0.00 0.00 0.00 74 1013.8
20260903084540 79 198 1.0 4.0 0.00 0.00 0.00 73 1013.8
20260903083037 80 155 2.0 5.0 0.00 0.00 0.00 73 1013.8
20260903081542 80 141 2.0 5.0 0.00 0.00 0.00 73 1013.7
20260903080036 80 121 2.0 5.0 0.00 0.00 0.00 73 1013.6
20260903074535 80 184 2.0 5.0 0.00 0.00 0.00 73 1013.6
20260903073034 81 157 1.0 3.0 0.00 0.00 0.00 72 1013.6
20260903071532 81 160 1.0 5.0 0.00 0.00 0.00 72 1013.6
20260903070030 81 187 2.0 7.0 0.00 0.00 0.00 71 1013.8
20260903064529 81 203 2.0 6.0 0.00 0.00 0.00 72 1013.8
20260903063028 81 194 2.0 5.0 0.00 0.00 0.00 72 1013.8
20260903061527 81 136 1.0 4.0 0.00 0.00 0.00 72 1013.8
20260903060026 81 195 1.0 4.0 0.00 0.00 0.00 72 1013.7
20260903054524 81 157 1.0 4.0 0.00 0.00 0.00 72 1013.8
20260903053022 82 139 2.0 4.0 0.00 0.00 0.00 71 1013.7
20260903051522 82 169 1.0 4.0 0.00 0.00 0.00 71 1013.7
20260903050018 82 142 2.0 4.0 0.00 0.00 0.00 71 1013.6
20260903044517 82 153 1.0 4.0 0.00 0.00 0.00 71 1013.6
20260903043020 82 134 1.0 4.0 0.00 0.00 0.00 71 1013.6
20260903041518 83 141 1.0 3.0 0.00 0.00 0.00 70 1013.6
20260903040016 83 84 1.0 3.0 0.00 0.00 0.00 70 1013.7
20260903034516 83 137 0.0 2.0 0.00 0.00 0.00 70 1013.8
20260903033015 83 127 0.0 2.0 0.00 0.00 0.00 70 1013.8
20260903031527 83 127 1.0 5.0 0.00 0.00 0.00 69 1013.8
20260903030014 84 146 1.0 3.0 0.00 0.00 0.00 68 1013.7
20260903024514 84 206 2.0 5.0 0.00 0.00 0.00 67 1013.6
20260903023018 84 139 2.0 4.0 0.00 0.00 0.00 66 1013.5
20260903021533 85 157 1.0 3.0 0.00 0.00 0.00 66 1013.4
20260903020013 85 153 1.0 4.0 0.00 0.00 0.00 65 1013.3
20260903014511 85 193 1.0 4.0 0.00 0.00 0.00 65 1013.1
20260903013013 83 153 0.0 3.0 0.00 0.00 0.00 68 1013.0
20260903011510 83 198 0.0 0.0 0.00 0.00 0.00 68 1012.7
20260903010009 85 198 0.0 0.0 0.00 0.00 0.00 65 1012.6
20260903004507 87 198 0.0 0.0 0.00 0.00 0.00 60 1012.6
20260903003008 90 198 0.0 0.0 0.00 0.00 0.00 54 1012.6
20260903001507 93 198 0.0 0.0 0.00 0.00 0.00 49 1012.6
20260903000006 96 198 0.0 0.0 0.00 0.00 0.00 44 1012.6
20260902234505 96 198 0.0 4.0 0.00 0.00 0.00 44 1012.7
20260902233013 97 208 1.0 3.0 0.00 0.00 0.00 43 1012.9
20260902231506 97 202 2.0 5.0 0.00 0.00 0.00 41 1012.8
20260902230003 97 217 2.0 6.0 0.00 0.00 0.00 41 1012.7
20260902224505 97 235 2.0 5.0 0.00 0.00 0.00 44 1012.8
20260902223004 97 212 1.0 8.0 0.00 0.00 0.00 45 1012.8
20260902221501 97 155 5.0 8.0 0.00 0.00 0.00 42 1012.9
20260902220100 98 221 3.0 7.0 0.00 0.00 0.00 43 1012.8
20260902214558 99 169 3.0 8.0 0.00 0.00 0.00 45 1012.9
20260902213058 98 210 5.0 9.0 0.00 0.00 0.00 45 1013.0
20260902211555 98 296 2.0 6.0 0.00 0.00 0.00 42 1013.0
20260902210053 97 129 2.0 8.0 0.00 0.00 0.00 46 1013.2
20260902204551 98 266 4.0 8.0 0.00 0.00 0.00 46 1013.3
20260902203053 97 143 6.0 9.0 0.00 0.00 0.00 45 1013.5
20260902201548 96 229 3.0 8.0 0.00 0.00 0.00 46 1013.7
20260902200045 98 156 5.0 10.0 0.00 0.00 0.00 47 1013.9